Time,TemperatureF,DewpointF,PressureIn,WindDirection,WindDirectionDegrees,WindSpeedMPH,WindSpeedGustMPH,Humidity,HourlyPrecipIn,Conditions,Clouds,dailyrainin,SolarRadiationWatts/m^2,SoftwareType,DateUTC
2013-06-26 00:00:00,69.7,65.0,29.85,NW,311,1.0,8.0,85,0.01,,---,0.01,0.00,VWS V14.01,2013-06-26 04:00:00,
2013-06-26 00:26:00,69.1,65.4,29.84,WNW,284,0.0,5.0,88,0.01,,---,0.00,0.00,VWS V14.01,2013-06-26 04:26:00,
2013-06-26 00:30:00,69.1,65.4,29.84,WNW,284,0.0,5.0,88,0.01,,---,0.00,0.00,VWS V14.01,2013-06-26 04:30:00,
2013-06-26 00:56:00,69.2,65.5,29.84,WNW,284,0.0,1.0,88,0.01,,---,0.00,0.00,VWS V14.01,2013-06-26 04:56:00,
2013-06-26 01:00:00,69.2,65.5,29.84,WNW,284,0.0,1.0,88,0.01,,---,0.00,0.00,VWS V14.01,2013-06-26 05:00:00,
2013-06-26 01:26:00,69.8,65.8,29.84,WNW,283,3.0,3.0,87,0.00,,---,0.00,0.00,VWS V14.01,2013-06-26 05:26:00,
2013-06-26 01:30:00,69.8,65.8,29.84,WNW,283,3.0,3.0,87,0.00,,---,0.00,0.00,VWS V14.01,2013-06-26 05:30:00,
2013-06-26 01:56:00,70.8,66.1,29.84,SW,223,1.0,9.0,85,0.00,,---,0.00,0.00,VWS V14.01,2013-06-26 05:56:00,
2013-06-26 02:00:00,70.8,66.1,29.84,SW,223,1.0,9.0,85,0.00,,---,0.00,0.00,VWS V14.01,2013-06-26 06:00:00,
2013-06-26 02:26:00,71.4,66.0,29.84,WSW,240,3.0,8.0,83,0.00,,---,0.00,0.00,VWS V14.01,2013-06-26 06:26:00,
2013-06-26 02:30:00,71.4,66.0,29.84,WSW,240,3.0,8.0,83,0.00,,---,0.00,0.00,VWS V14.01,2013-06-26 06:30:00,
2013-06-26 02:56:00,71.6,66.2,29.83,SW,234,5.0,11.0,83,0.00,,---,0.00,0.00,VWS V14.01,2013-06-26 06:56:00,
2013-06-26 03:00:00,71.6,66.2,29.83,SW,234,5.0,11.0,83,0.00,,---,0.00,0.00,VWS V14.01,2013-06-26 07:00:00,
2013-06-26 03:26:00,71.7,66.3,29.83,WSW,244,6.0,9.0,83,0.01,,---,0.01,0.00,VWS V14.01,2013-06-26 07:26:00,
2013-06-26 03:30:00,71.7,66.3,29.83,WSW,244,6.0,9.0,83,0.01,,---,0.01,0.00,VWS V14.01,2013-06-26 07:30:00,
2013-06-26 03:56:00,71.6,66.5,29.83,SSW,211,3.0,11.0,84,0.01,,---,0.01,0.00,VWS V14.01,2013-06-26 07:56:00,
2013-06-26 04:00:00,71.6,66.5,29.83,SSW,211,3.0,11.0,84,0.01,,---,0.01,0.00,VWS V14.01,2013-06-26 08:00:00,
2013-06-26 04:30:00,71.1,66.4,29.83,SW,223,4.0,11.0,85,0.01,,---,0.01,0.00,VWS V14.01,2013-06-26 08:30:00,
2013-06-26 04:56:00,70.9,66.2,29.86,SW,234,4.0,9.0,85,0.00,,---,0.01,0.00,VWS V14.01,2013-06-26 08:56:00,
2013-06-26 05:00:00,70.9,66.2,29.86,SW,234,4.0,9.0,85,0.00,,---,0.01,0.00,VWS V14.01,2013-06-26 09:00:00,
2013-06-26 05:26:00,70.8,66.1,29.86,SW,221,3.0,9.0,85,0.00,,---,0.01,0.00,VWS V14.01,2013-06-26 09:26:00,
2013-06-26 05:30:00,70.8,66.1,29.86,SW,221,3.0,9.0,85,0.00,,---,0.01,0.00,VWS V14.01,2013-06-26 09:30:00,
2013-06-26 05:56:00,70.6,65.9,29.86,WSW,247,0.0,8.0,85,0.00,,---,0.01,14.00,VWS V14.01,2013-06-26 09:56:00,
2013-06-26 06:00:00,70.6,65.9,29.86,WSW,247,0.0,8.0,85,0.00,,---,0.01,14.00,VWS V14.01,2013-06-26 10:00:00,
2013-06-26 06:26:00,70.4,66.0,29.87,SW,229,3.0,7.0,86,0.00,,---,0.01,40.00,VWS V14.01,2013-06-26 10:26:00,
2013-06-26 06:30:00,70.4,66.0,29.87,SW,229,3.0,7.0,86,0.00,,---,0.01,40.00,VWS V14.01,2013-06-26 10:30:00,
2013-06-26 06:56:00,71.0,66.3,29.87,SW,224,6.0,6.0,85,0.00,,---,0.01,102.00,VWS V14.01,2013-06-26 10:56:00,
2013-06-26 07:00:00,71.0,66.3,29.87,SW,224,6.0,6.0,85,0.00,,---,0.01,102.00,VWS V14.01,2013-06-26 11:00:00,
2013-06-26 07:26:00,71.9,66.5,29.88,SSW,211,2.0,10.0,83,0.00,,---,0.01,60.00,VWS V14.01,2013-06-26 11:26:00,
2013-06-26 07:30:00,71.9,66.5,29.88,SSW,211,2.0,10.0,83,0.00,,---,0.01,60.00,VWS V14.01,2013-06-26 11:30:00,
2013-06-26 07:56:00,72.0,66.9,29.88,WSW,252,4.0,9.0,84,0.00,,---,0.01,144.00,VWS V14.01,2013-06-26 11:56:00,
2013-06-26 08:00:00,72.0,66.9,29.88,WSW,252,4.0,9.0,84,0.00,,---,0.01,144.00,VWS V14.01,2013-06-26 12:00:00,
2013-06-26 08:26:00,72.9,67.4,29.88,WSW,246,4.0,10.0,83,0.00,,---,0.01,352.00,VWS V14.01,2013-06-26 12:26:00,
2013-06-26 08:30:00,72.9,67.4,29.88,WSW,246,4.0,10.0,83,0.00,,---,0.01,352.00,VWS V14.01,2013-06-26 12:30:00,
2013-06-26 08:56:00,74.0,67.4,29.88,WSW,238,10.0,17.0,80,0.00,,---,0.01,246.00,VWS V14.01,2013-06-26 12:56:00,
2013-06-26 09:00:00,74.0,67.4,29.88,WSW,238,10.0,17.0,80,0.00,,---,0.01,246.00,VWS V14.01,2013-06-26 13:00:00,
2013-06-26 09:26:00,73.8,67.2,29.88,WSW,257,9.0,16.0,80,0.00,,---,0.01,229.00,VWS V14.01,2013-06-26 13:26:00,
2013-06-26 09:30:00,73.8,67.2,29.88,WSW,257,9.0,16.0,80,0.00,,---,0.01,229.00,VWS V14.01,2013-06-26 13:30:00,
2013-06-26 09:56:00,73.1,67.3,29.87,West,261,8.0,13.0,82,0.00,,---,0.01,109.00,VWS V14.01,2013-06-26 13:56:00,
2013-06-26 10:00:00,73.1,67.3,29.87,West,261,8.0,13.0,82,0.00,,---,0.01,109.00,VWS V14.01,2013-06-26 14:00:00,
2013-06-26 10:26:00,72.9,67.4,29.86,WNW,290,0.0,10.0,83,0.00,,---,0.01,151.00,VWS V14.01,2013-06-26 14:26:00,
2013-06-26 10:30:00,72.9,67.4,29.86,WNW,290,0.0,10.0,83,0.00,,---,0.01,151.00,VWS V14.01,2013-06-26 14:30:00,
2013-06-26 10:56:00,73.5,67.7,29.87,West,263,5.0,8.0,82,0.00,,---,0.01,381.00,VWS V14.01,2013-06-26 14:56:00,
2013-06-26 11:00:00,73.5,67.7,29.87,West,263,5.0,8.0,82,0.00,,---,0.01,381.00,VWS V14.01,2013-06-26 15:00:00,
2013-06-26 11:26:00,75.5,68.5,29.87,SW,218,3.0,11.0,79,0.00,,---,0.01,631.00,VWS V14.01,2013-06-26 15:26:00,
2013-06-26 11:30:00,75.5,68.5,29.87,SW,218,3.0,11.0,79,0.00,,---,0.01,631.00,VWS V14.01,2013-06-26 15:30:00,
2013-06-26 11:56:00,77.2,68.7,29.88,SSW,209,5.0,12.0,75,0.00,,---,0.01,900.00,VWS V14.01,2013-06-26 15:56:00,
2013-06-26 12:00:00,77.2,68.7,29.88,SSW,209,5.0,12.0,75,0.00,,---,0.01,900.00,VWS V14.01,2013-06-26 16:00:00,
2013-06-26 12:26:00,78.5,69.1,29.87,NW,325,2.0,11.0,73,0.00,,---,0.01,1055.00,VWS V14.01,2013-06-26 16:26:00,
2013-06-26 12:30:00,78.5,69.1,29.87,NW,325,2.0,11.0,73,0.00,,---,0.01,1055.00,VWS V14.01,2013-06-26 16:30:00,
2013-06-26 12:56:00,79.1,68.9,29.87,SW,230,5.0,11.0,71,0.00,,---,0.01,1044.00,VWS V14.01,2013-06-26 16:56:00,
2013-06-26 13:00:00,79.1,68.9,29.87,SW,230,5.0,11.0,71,0.00,,---,0.01,1044.00,VWS V14.01,2013-06-26 17:00:00,
2013-06-26 13:26:00,81.7,69.7,29.86,SW,219,4.0,11.0,67,0.00,,---,0.01,962.00,VWS V14.01,2013-06-26 17:26:00,
2013-06-26 13:30:00,81.7,69.7,29.86,SW,219,4.0,11.0,67,0.00,,---,0.01,962.00,VWS V14.01,2013-06-26 17:30:00,
2013-06-26 13:56:00,82.2,68.4,29.86,WSW,242,7.0,12.0,63,0.00,,---,0.01,297.00,VWS V14.01,2013-06-26 17:56:00,
2013-06-26 14:00:00,82.2,68.4,29.86,WSW,242,7.0,12.0,63,0.00,,---,0.01,297.00,VWS V14.01,2013-06-26 18:00:00,
2013-06-26 14:26:00,82.0,68.2,29.86,WSW,238,10.0,13.0,63,0.00,,---,0.01,905.00,VWS V14.01,2013-06-26 18:26:00,
2013-06-26 14:30:00,82.0,68.2,29.86,WSW,238,10.0,13.0,63,0.00,,---,0.01,905.00,VWS V14.01,2013-06-26 18:30:00,
2013-06-26 14:56:00,83.8,67.0,29.86,WNW,296,1.0,14.0,57,0.00,,---,0.01,879.00,VWS V14.01,2013-06-26 18:56:00,
2013-06-26 15:00:00,83.8,67.0,29.86,WNW,296,1.0,14.0,57,0.00,,---,0.01,879.00,VWS V14.01,2013-06-26 19:00:00,
2013-06-26 15:26:00,83.3,67.5,29.85,WNW,289,4.0,13.0,59,0.00,,---,0.01,229.00,VWS V14.01,2013-06-26 19:26:00,
2013-06-26 15:30:00,83.3,67.5,29.85,WNW,289,4.0,13.0,59,0.00,,---,0.01,229.00,VWS V14.01,2013-06-26 19:30:00,
2013-06-26 15:56:00,73.7,67.2,29.85,North,5,0.0,23.0,80,0.15,,---,0.16,244.00,VWS V14.01,2013-06-26 19:56:00,
2013-06-26 16:00:00,73.7,67.2,29.85,North,5,0.0,23.0,80,0.15,,---,0.16,244.00,VWS V14.01,2013-06-26 20:00:00,
2013-06-26 16:26:00,74.8,70.0,29.85,WNW,295,7.0,11.0,85,0.15,,---,0.16,120.00,VWS V14.01,2013-06-26 20:26:00,
2013-06-26 16:30:00,74.8,70.0,29.85,WNW,295,7.0,11.0,85,0.15,,---,0.16,120.00,VWS V14.01,2013-06-26 20:30:00,
2013-06-26 16:56:00,73.4,67.6,29.86,West,269,4.0,11.0,82,0.16,,---,0.17,40.00,VWS V14.01,2013-06-26 20:56:00,
2013-06-26 17:00:00,73.4,67.6,29.86,West,269,4.0,11.0,82,0.16,,---,0.17,40.00,VWS V14.01,2013-06-26 21:00:00,
2013-06-26 17:26:00,72.9,68.8,29.86,West,269,0.0,4.0,87,0.01,,---,0.17,90.00,VWS V14.01,2013-06-26 21:26:00,
2013-06-26 17:30:00,72.9,68.8,29.86,West,269,0.0,4.0,87,0.01,,---,0.17,90.00,VWS V14.01,2013-06-26 21:30:00,
2013-06-26 17:56:00,74.2,70.1,29.83,SSW,210,0.0,3.0,87,0.01,,---,0.17,160.00,VWS V14.01,2013-06-26 21:56:00,
2013-06-26 18:00:00,74.2,70.1,29.83,SSW,210,0.0,3.0,87,0.01,,---,0.17,160.00,VWS V14.01,2013-06-26 22:00:00,
2013-06-26 18:26:00,78.4,69.8,29.83,SSW,210,0.0,3.0,75,0.00,,---,0.17,322.00,VWS V14.01,2013-06-26 22:26:00,
2013-06-26 18:30:00,78.4,69.8,29.83,SSW,210,0.0,3.0,75,0.00,,---,0.17,322.00,VWS V14.01,2013-06-26 22:30:00,
2013-06-26 18:56:00,81.4,71.9,29.82,SSW,210,0.0,1.0,73,0.00,,---,0.17,232.00,VWS V14.01,2013-06-26 22:56:00,
2013-06-26 19:00:00,81.4,71.9,29.82,SSW,210,0.0,1.0,73,0.00,,---,0.17,232.00,VWS V14.01,2013-06-26 23:00:00,
2013-06-26 19:26:00,80.3,72.4,29.81,SSW,192,0.0,3.0,77,0.00,,---,0.17,141.00,VWS V14.01,2013-06-26 23:26:00,
2013-06-26 19:30:00,80.3,72.4,29.81,SSW,192,0.0,3.0,77,0.00,,---,0.17,141.00,VWS V14.01,2013-06-26 23:30:00,
2013-06-26 19:56:00,80.4,72.5,29.84,SSW,193,0.0,1.0,77,0.00,,---,0.17,63.00,VWS V14.01,2013-06-26 23:56:00,
2013-06-26 20:00:00,80.4,72.5,29.84,SSW,193,0.0,1.0,77,0.00,,---,0.17,63.00,VWS V14.01,2013-06-27 00:00:00,
2013-06-26 20:26:00,78.3,72.0,29.84,SSW,193,0.0,1.0,81,0.00,,---,0.17,11.00,VWS V14.01,2013-06-27 00:26:00,
2013-06-26 20:30:00,78.3,72.0,29.84,SSW,193,0.0,1.0,81,0.00,,---,0.17,11.00,VWS V14.01,2013-06-27 00:30:00,
2013-06-26 20:56:00,74.9,71.1,29.83,SSW,193,0.0,1.0,88,0.00,,---,0.17,0.00,VWS V14.01,2013-06-27 00:56:00,
2013-06-26 21:00:00,74.9,71.1,29.83,SSW,193,0.0,1.0,88,0.00,,---,0.17,0.00,VWS V14.01,2013-06-27 01:00:00,
2013-06-26 21:26:00,73.3,70.2,29.83,SSW,193,0.0,1.0,90,0.00,,---,0.17,0.00,VWS V14.01,2013-06-27 01:26:00,
2013-06-26 21:30:00,73.3,70.2,29.83,SSW,193,0.0,1.0,90,0.00,,---,0.17,0.00,VWS V14.01,2013-06-27 01:30:00,
2013-06-26 21:56:00,72.1,70.0,29.84,SSW,193,0.0,0.0,93,0.00,,---,0.17,0.00,VWS V14.01,2013-06-27 01:56:00,
2013-06-26 22:00:00,72.1,70.0,29.84,SSW,193,0.0,0.0,93,0.00,,---,0.17,0.00,VWS V14.01,2013-06-27 02:00:00,
2013-06-26 22:26:00,71.5,69.4,29.85,SSW,193,0.0,1.0,93,0.00,,---,0.17,0.00,VWS V14.01,2013-06-27 02:26:00,
2013-06-26 22:30:00,71.5,69.4,29.85,SSW,193,0.0,1.0,93,0.00,,---,0.17,0.00,VWS V14.01,2013-06-27 02:30:00,
2013-06-26 22:56:00,70.5,68.1,29.85,SSW,193,0.0,0.0,92,0.00,,---,0.17,0.00,VWS V14.01,2013-06-27 02:56:00,
2013-06-26 23:00:00,70.5,68.1,29.85,SSW,193,0.0,0.0,92,0.00,,---,0.17,0.00,VWS V14.01,2013-06-27 03:00:00,
2013-06-26 23:26:00,69.8,67.7,29.84,SSW,193,0.0,1.0,93,0.00,,---,0.17,0.00,VWS V14.01,2013-06-27 03:26:00,
2013-06-26 23:30:00,69.8,67.7,29.84,SSW,193,0.0,1.0,93,0.00,,---,0.17,0.00,VWS V14.01,2013-06-27 03:30:00,
2013-06-26 23:56:00,69.0,66.9,29.85,SSW,193,0.0,1.0,93,0.00,,---,0.17,0.00,VWS V14.01,2013-06-27 03:56:00,